Change the Weather History Date:

Thursday, October 18, 2012

  Actual Average Record
Temperature  
Mean Temperature 59 °F -  
Max Temperature 68 °F 68 °F 90 °F (2005)
Min Temperature 50 °F 45 °F 37 °F (1996)
Degree Days  
Heating Degree Days 6    
Growing Degree Days 9 (Base 50)    
Moisture  
Dew Point 27 °F    
Average Humidity 32    
Maximum Humidity 54    
Minimum Humidity 18    
Precipitation  
Precipitation 0.00 in - - ()
Sea Level Pressure  
Sea Level Pressure 29.80 in    
Wind  
Wind Speed 12 mph (WNW)    
Max Wind Speed 25 mph    
Max Gust Speed 37 mph    
Visibility 9 miles    
Events      
Averages and records for this station are not official NWS values.
T = Trace of Precipitation, MM = Missing Value Source: NWS Daily Summary

Daily Weather History Graph

Daily Weather History Graph

Search for Another Location

Airport or City:

Trip Planner

Search our weather history database for the weather conditions in past years. The results will help you decide how hot, cold, wet, or windy it might be!

Date:

Astronomy

Oct. 18, 2012 Rise Set
Actual Time 7:33 AM CDT 6:40 PM CDT
Civil Twilight 7:06 AM CDT 7:07 PM CDT
Nautical Twilight 6:36 AM CDT 7:37 PM CDT
Astronomical Twilight 6:06 AM CDT 8:07 PM CDT
Moon 11:11 AM CDT (10/18) 9:20 PM CDT (10/18)
Length of Visible Light 12h 00m
Length of Day
11h 07m
Waxing Crescent, 14% of the Moon is Illuminated
Oct 18
Waxing Crescent
Oct 21
First Quarter
Oct 29
Full
Nov 6
Last Quarter
Nov 13
New

Hourly Weather History & Observations

Time (CDT) Temp. Dew Point Humidity Pressure Visibility Wind Dir Wind Speed Gust Speed Precip Events Conditions
12:52 AM 51.1 °F 35.1 °F 54% 29.77 in 10.0 mi NW 5.8 mph - N/A   Clear
1:52 AM 50.0 °F 34.0 °F 54% 29.80 in 10.0 mi West 6.9 mph - N/A   Clear
2:52 AM 50.0 °F 34.0 °F 54% 29.80 in 10.0 mi West 6.9 mph - N/A   Clear
3:52 AM 50.0 °F 32.0 °F 50% 29.80 in 10.0 mi WNW 8.1 mph - N/A   Clear
4:52 AM 50.0 °F 30.0 °F 46% 29.79 in 10.0 mi West 9.2 mph - N/A   Clear
5:52 AM 50.0 °F 28.9 °F 44% 29.82 in 10.0 mi West 9.2 mph - N/A   Clear
6:52 AM 51.1 °F 28.0 °F 41% 29.83 in 10.0 mi West 9.2 mph - N/A   Clear
7:52 AM 51.1 °F 28.9 °F 43% 29.84 in 10.0 mi WNW 9.2 mph - N/A   Clear
8:52 AM 55.0 °F 28.0 °F 35% 29.85 in 10.0 mi WNW 13.8 mph 23.0 mph N/A   Clear
9:52 AM 57.9 °F 27.0 °F 31% 29.85 in 10.0 mi West 20.7 mph 31.1 mph N/A   Clear
10:52 AM 61.0 °F 27.0 °F 27% 29.84 in 10.0 mi West 18.4 mph 27.6 mph N/A   Clear
11:52 AM 63.0 °F 24.1 °F 23% 29.83 in 10.0 mi WNW 21.9 mph 33.4 mph N/A   Clear
12:52 PM 64.0 °F 23.0 °F 21% 29.81 in 10.0 mi West 20.7 mph 34.5 mph N/A   Clear
1:52 PM 66.0 °F 23.0 °F 20% 29.78 in 10.0 mi WNW 24.2 mph 33.4 mph N/A   Clear
2:52 PM 68.0 °F 23.0 °F 18% 29.77 in 10.0 mi WNW 19.6 mph 36.8 mph N/A   Clear
3:52 PM 68.0 °F 24.1 °F 19% 29.76 in 10.0 mi WNW 25.3 mph 33.4 mph N/A   Clear
4:52 PM 66.9 °F 24.1 °F 20% 29.76 in 10.0 mi WNW 25.3 mph 35.7 mph N/A   Overcast
5:52 PM 64.9 °F 25.0 °F 22% 29.77 in 9.0 mi WNW 16.1 mph 21.9 mph N/A   Overcast
6:52 PM 64.0 °F 24.1 °F 22% 29.77 in 7.0 mi West 12.7 mph - N/A   Overcast
7:52 PM 64.0 °F 24.1 °F 22% 29.78 in 6.0 mi West 12.7 mph - N/A   Haze
8:52 PM 64.0 °F 24.1 °F 22% 29.79 in 5.0 mi WNW 10.4 mph 19.6 mph N/A   Haze
9:52 PM 62.1 °F 26.1 °F 25% 29.78 in 5.0 mi West 8.1 mph - N/A   Haze
10:52 PM 62.1 °F 26.1 °F 25% 29.78 in 5.0 mi West 10.4 mph - N/A   Haze
11:43 PM 60.8 °F 26.6 °F 27% 29.79 in 7.0 mi West 15.0 mph - N/A   Overcast
11:52 PM 60.1 °F 27.0 °F 28% 29.78 in 8.0 mi West 12.7 mph - N/A   Overcast